Time,TemperatureF,DewpointF,PressureIn,WindDirection,WindDirectionDegrees,WindSpeedMPH,WindSpeedGustMPH,Humidity,HourlyPrecipIn,Conditions,Clouds,dailyrainin,SoftwareType,DateUTC
2013-01-08 00:02:00,44.0,27.0,29.83,NNE,25,7.0,17.0,50,0.00,,,0.01,,2013-01-08 07:02:00,
2013-01-08 00:12:00,44.0,27.0,29.83,NNE,25,7.0,17.0,50,0.00,,,0.01,,2013-01-08 07:12:00,
2013-01-08 00:22:00,44.0,27.0,29.88,ESE,105,0.0,8.0,50,0.00,,,0.00,,2013-01-08 07:22:00,
2013-01-08 00:32:00,44.0,27.0,29.86,SSE,156,0.0,3.0,51,0.00,,,0.00,,2013-01-08 07:32:00,
2013-01-08 00:42:00,44.0,27.0,29.86,SSE,156,0.0,3.0,51,0.00,,,0.00,,2013-01-08 07:42:00,
2013-01-08 00:52:00,43.0,27.0,29.86,NNW,329,3.0,4.0,52,0.00,,,0.00,,2013-01-08 07:52:00,
2013-01-08 01:02:00,43.0,26.0,29.84,North,359,5.0,8.0,51,0.00,,,0.00,,2013-01-08 08:02:00,
2013-01-08 01:12:00,43.0,26.0,29.84,North,359,5.0,8.0,51,0.00,,,0.00,,2013-01-08 08:12:00,
2013-01-08 01:22:00,43.0,26.0,29.85,North,349,1.0,12.0,51,0.00,,,0.00,,2013-01-08 08:22:00,
2013-01-08 01:32:00,42.0,25.0,29.85,NNW,336,2.0,4.0,51,0.00,,,0.00,,2013-01-08 08:32:00,
2013-01-08 01:42:00,42.0,25.0,29.85,NNW,336,2.0,4.0,51,0.00,,,0.00,,2013-01-08 08:42:00,
2013-01-08 01:53:00,41.0,25.0,29.87,WSW,243,0.0,3.0,52,0.00,,,0.00,,2013-01-08 08:53:00,
2013-01-08 02:02:00,42.0,25.0,29.86,NW,326,0.0,3.0,51,0.00,,,0.00,,2013-01-08 09:02:00,
2013-01-08 02:12:00,42.0,25.0,29.86,NE,46,0.0,5.0,50,0.00,,,0.00,,2013-01-08 09:12:00,
2013-01-08 02:22:00,42.0,25.0,29.86,NE,46,0.0,5.0,50,0.00,,,0.00,,2013-01-08 09:22:00,
2013-01-08 02:32:00,42.0,25.0,29.86,NNE,13,0.0,0.0,50,0.00,,,0.00,,2013-01-08 09:32:00,
2013-01-08 02:42:00,42.0,25.0,29.86,NNE,13,0.0,0.0,50,0.00,,,0.00,,2013-01-08 09:42:00,
2013-01-08 02:52:00,41.0,24.0,29.86,NNE,23,0.0,5.0,50,0.00,,,0.00,,2013-01-08 09:52:00,
2013-01-08 03:02:00,40.0,23.0,29.85,NNW,345,4.0,7.0,51,0.00,,,0.00,,2013-01-08 10:02:00,
2013-01-08 03:12:00,40.0,23.0,29.85,NNW,345,4.0,7.0,51,0.00,,,0.00,,2013-01-08 10:12:00,
2013-01-08 03:22:00,41.0,23.0,29.86,NNW,335,2.0,7.0,49,0.00,,,0.00,,2013-01-08 10:22:00,
2013-01-08 03:32:00,41.0,24.0,29.86,North,10,7.0,11.0,50,0.00,,,0.00,,2013-01-08 10:32:00,
2013-01-08 03:42:00,41.0,24.0,29.86,North,10,7.0,11.0,50,0.00,,,0.00,,2013-01-08 10:42:00,
2013-01-08 03:52:00,42.0,25.0,29.85,NNE,30,4.0,10.0,50,0.00,,,0.00,,2013-01-08 10:52:00,
2013-01-08 04:02:00,42.0,22.0,29.84,NNW,342,6.0,10.0,45,0.00,,,0.00,,2013-01-08 11:02:00,
2013-01-08 04:12:00,42.0,22.0,29.84,NNW,342,6.0,10.0,45,0.00,,,0.00,,2013-01-08 11:12:00,
2013-01-08 04:22:00,42.0,21.0,29.84,NE,55,6.0,14.0,42,0.00,,,0.00,,2013-01-08 11:22:00,
2013-01-08 04:32:00,42.0,24.0,29.86,ESE,120,3.0,10.0,48,0.00,,,0.00,,2013-01-08 11:32:00,
2013-01-08 04:42:00,42.0,24.0,29.86,ESE,120,3.0,10.0,48,0.00,,,0.00,,2013-01-08 11:42:00,
2013-01-08 04:53:00,40.0,25.0,29.84,NNE,25,2.0,4.0,54,0.00,,,0.00,,2013-01-08 11:53:00,
2013-01-08 05:02:00,40.0,23.0,29.83,NNE,27,3.0,11.0,51,0.00,,,0.00,,2013-01-08 12:02:00,
2013-01-08 05:12:00,40.0,23.0,29.83,NNE,27,3.0,11.0,51,0.00,,,0.00,,2013-01-08 12:12:00,
2013-01-08 05:22:00,40.0,22.0,29.84,North,3,2.0,7.0,49,0.00,,,0.00,,2013-01-08 12:22:00,
2013-01-08 05:32:00,40.0,22.0,29.84,NE,51,2.0,7.0,48,0.00,,,0.00,,2013-01-08 12:32:00,
2013-01-08 05:42:00,40.0,22.0,29.84,NE,51,2.0,7.0,48,0.00,,,0.00,,2013-01-08 12:42:00,
2013-01-08 05:53:00,40.0,20.0,29.85,NNE,17,2.0,10.0,44,0.00,,,0.00,,2013-01-08 12:53:00,
2013-01-08 06:03:00,40.0,19.0,29.85,North,7,2.0,7.0,43,0.00,,,0.00,,2013-01-08 13:03:00,
2013-01-08 06:12:00,40.0,19.0,29.85,North,7,2.0,7.0,43,0.00,,,0.00,,2013-01-08 13:12:00,
2013-01-08 06:22:00,39.0,18.0,29.85,North,0,3.0,8.0,43,0.00,,,0.00,,2013-01-08 13:22:00,
2013-01-08 06:32:00,39.0,19.0,29.87,NNE,18,4.0,9.0,44,0.00,,,0.00,,2013-01-08 13:32:00,
2013-01-08 06:42:00,39.0,19.0,29.87,NNE,18,4.0,9.0,44,0.00,,,0.00,,2013-01-08 13:42:00,
2013-01-08 06:53:00,39.0,19.0,29.88,NE,34,4.0,10.0,45,0.00,,,0.00,,2013-01-08 13:53:00,
2013-01-08 07:02:00,38.0,19.0,29.90,NNE,21,2.0,8.0,45,0.00,,,0.00,,2013-01-08 14:02:00,
2013-01-08 07:12:00,38.0,19.0,29.90,NNE,21,2.0,8.0,45,0.00,,,0.00,,2013-01-08 14:12:00,
2013-01-08 07:23:00,37.0,18.0,29.89,NNE,15,9.0,14.0,46,0.00,,,0.00,,2013-01-08 14:23:00,
2013-01-08 07:33:00,38.0,20.0,29.91,NE,46,3.0,15.0,47,0.00,,,0.00,,2013-01-08 14:33:00,
2013-01-08 07:42:00,38.0,20.0,29.91,NE,46,3.0,15.0,47,0.00,,,0.00,,2013-01-08 14:42:00,
2013-01-08 07:53:00,38.0,19.0,29.92,North,0,7.0,11.0,46,0.00,,,0.00,,2013-01-08 14:53:00,
2013-01-08 08:02:00,37.0,19.0,29.92,NNE,28,6.0,12.0,48,0.00,,,0.00,,2013-01-08 15:02:00,
2013-01-08 08:12:00,37.0,19.0,29.92,NNE,28,6.0,12.0,48,0.00,,,0.00,,2013-01-08 15:12:00,
2013-01-08 08:22:00,37.0,23.0,29.93,North,11,5.0,8.0,57,0.00,,,0.00,,2013-01-08 15:22:00,
2013-01-08 08:33:00,37.0,21.0,29.94,NNE,15,4.0,9.0,52,0.00,,,0.00,,2013-01-08 15:33:00,
2013-01-08 08:43:00,37.0,21.0,29.94,NNE,15,4.0,9.0,52,0.00,,,0.00,,2013-01-08 15:43:00,
2013-01-08 08:53:00,37.0,22.0,29.95,NE,45,3.0,6.0,54,0.00,,,0.00,,2013-01-08 15:53:00,
2013-01-08 09:03:00,38.0,22.0,29.96,NE,41,2.0,4.0,52,0.00,,,0.00,,2013-01-08 16:03:00,
2013-01-08 09:12:00,38.0,22.0,29.96,NE,41,2.0,4.0,52,0.00,,,0.00,,2013-01-08 16:12:00,
2013-01-08 09:22:00,40.0,21.0,29.98,SSE,153,4.0,5.0,47,0.00,,,0.00,,2013-01-08 16:22:00,
2013-01-08 09:33:00,42.0,21.0,29.98,ESE,107,0.0,2.0,43,0.00,,,0.00,,2013-01-08 16:33:00,
2013-01-08 09:42:00,42.0,21.0,29.98,ESE,107,0.0,2.0,43,0.00,,,0.00,,2013-01-08 16:42:00,
2013-01-08 09:53:00,42.0,21.0,29.98,NNE,20,4.0,7.0,42,0.00,,,0.00,,2013-01-08 16:53:00,
2013-01-08 10:03:00,43.0,20.0,29.98,NW,325,4.0,9.0,39,0.00,,,0.00,,2013-01-08 17:03:00,
2013-01-08 10:12:00,43.0,20.0,29.98,NW,325,4.0,9.0,39,0.00,,,0.00,,2013-01-08 17:12:00,
2013-01-08 10:23:00,44.0,19.0,29.98,North,11,4.0,7.0,36,0.00,,,0.00,,2013-01-08 17:23:00,
2013-01-08 10:33:00,46.0,20.0,29.98,NW,326,4.0,7.0,35,0.00,,,0.00,,2013-01-08 17:33:00,
2013-01-08 10:43:00,46.0,20.0,29.98,NW,326,4.0,7.0,35,0.00,,,0.00,,2013-01-08 17:43:00,
2013-01-08 10:53:00,47.0,20.0,29.98,NNE,18,3.0,8.0,34,0.00,,,0.00,,2013-01-08 17:53:00,
2013-01-08 11:03:00,48.0,20.0,29.97,NE,55,6.0,11.0,32,0.00,,,0.00,,2013-01-08 18:03:00,
2013-01-08 11:12:00,48.0,20.0,29.97,NE,55,6.0,11.0,32,0.00,,,0.00,,2013-01-08 18:12:00,
2013-01-08 11:23:00,50.0,20.0,29.98,North,359,4.0,11.0,30,0.00,,,0.00,,2013-01-08 18:23:00,
2013-01-08 11:33:00,51.0,18.0,29.97,NNE,15,5.0,8.0,27,0.00,,,0.00,,2013-01-08 18:33:00,
2013-01-08 11:43:00,51.0,18.0,29.97,NNE,15,5.0,8.0,27,0.00,,,0.00,,2013-01-08 18:43:00,
2013-01-08 11:53:00,53.0,19.0,29.97,NW,316,4.0,10.0,26,0.00,,,0.00,,2013-01-08 18:53:00,
2013-01-08 12:03:00,55.0,16.0,29.96,NNE,15,6.0,13.0,21,0.00,,,0.00,,2013-01-08 19:03:00,
2013-01-08 12:12:00,55.0,16.0,29.96,NNE,15,6.0,13.0,21,0.00,,,0.00,,2013-01-08 19:12:00,
2013-01-08 12:22:00,56.0,14.0,29.95,NNW,333,5.0,12.0,19,0.00,,,0.00,,2013-01-08 19:22:00,
2013-01-08 12:32:00,57.0,11.0,29.94,NNW,345,5.0,9.0,16,0.00,,,0.00,,2013-01-08 19:32:00,
2013-01-08 12:42:00,57.0,11.0,29.94,NNW,345,5.0,9.0,16,0.00,,,0.00,,2013-01-08 19:42:00,
2013-01-08 12:53:00,58.0,11.0,29.93,North,359,7.0,14.0,15,0.00,,,0.00,,2013-01-08 19:53:00,
2013-01-08 13:02:00,58.0,9.0,29.92,NNE,17,7.0,14.0,14,0.00,,,0.00,,2013-01-08 20:02:00,
2013-01-08 13:12:00,58.0,9.0,29.92,NNE,17,7.0,14.0,14,0.00,,,0.00,,2013-01-08 20:12:00,
2013-01-08 13:23:00,58.0,9.0,29.91,NNW,332,3.0,12.0,14,0.00,,,0.00,,2013-01-08 20:23:00,
2013-01-08 13:33:00,59.0,6.0,29.91,North,359,5.0,10.0,12,0.00,,,0.00,,2013-01-08 20:33:00,
2013-01-08 13:43:00,59.0,6.0,29.91,North,359,5.0,10.0,12,0.00,,,0.00,,2013-01-08 20:43:00,
2013-01-08 13:53:00,59.0,8.0,29.91,NE,37,0.0,8.0,13,0.00,,,0.00,,2013-01-08 20:53:00,
2013-01-08 14:02:00,61.0,4.0,29.91,NNW,338,3.0,6.0,10,0.00,,,0.00,,2013-01-08 21:02:00,
2013-01-08 14:12:00,61.0,4.0,29.91,NNW,338,3.0,6.0,10,0.00,,,0.00,,2013-01-08 21:12:00,
2013-01-08 14:22:00,62.0,7.0,29.91,East,79,0.0,6.0,11,0.00,,,0.00,,2013-01-08 21:22:00,
2013-01-08 14:33:00,62.0,5.0,29.91,NW,325,2.0,8.0,10,0.00,,,0.00,,2013-01-08 21:33:00,
2013-01-08 14:43:00,62.0,5.0,29.91,NW,325,2.0,8.0,10,0.00,,,0.00,,2013-01-08 21:43:00,
2013-01-08 14:53:00,62.0,5.0,29.91,SE,141,1.0,3.0,10,0.00,,,0.00,,2013-01-08 21:53:00,
2013-01-08 15:03:00,62.0,3.0,29.92,NNW,329,2.0,5.0,9,0.00,,,0.00,,2013-01-08 22:03:00,
2013-01-08 15:12:00,62.0,3.0,29.92,NNW,329,2.0,5.0,9,0.00,,,0.00,,2013-01-08 22:12:00,
2013-01-08 15:22:00,62.0,3.0,29.92,North,7,1.0,5.0,9,0.00,,,0.00,,2013-01-08 22:22:00,
2013-01-08 15:32:00,63.0,3.0,29.93,North,353,5.0,8.0,9,0.00,,,0.00,,2013-01-08 22:32:00,
2013-01-08 15:42:00,63.0,3.0,29.93,North,353,5.0,8.0,9,0.00,,,0.00,,2013-01-08 22:42:00,
2013-01-08 15:53:00,62.0,0.0,29.93,NNW,342,7.0,11.0,8,0.00,,,0.00,,2013-01-08 22:53:00,
2013-01-08 16:02:00,62.0,-3.0,29.93,NNW,330,7.0,11.0,7,0.00,,,0.00,,2013-01-08 23:02:00,
2013-01-08 16:12:00,62.0,-3.0,29.93,NNW,330,7.0,11.0,7,0.00,,,0.00,,2013-01-08 23:12:00,
2013-01-08 16:22:00,62.0,-3.0,29.93,NNW,340,3.0,11.0,7,0.00,,,0.00,,2013-01-08 23:22:00,
2013-01-08 16:32:00,61.0,-4.0,29.94,NW,321,6.0,9.0,7,0.00,,,0.00,,2013-01-08 23:32:00,
2013-01-08 16:43:00,61.0,-4.0,29.94,NW,321,6.0,9.0,7,0.00,,,0.00,,2013-01-08 23:43:00,
2013-01-08 16:53:00,62.0,-3.0,29.94,NW,321,3.0,4.0,7,0.00,,,0.00,,2013-01-08 23:53:00,
2013-01-08 17:02:00,61.0,-4.0,29.94,NNW,343,4.0,6.0,7,0.00,,,0.00,,2013-01-09 00:02:00,
2013-01-08 17:12:00,61.0,-4.0,29.94,NNW,343,4.0,6.0,7,0.00,,,0.00,,2013-01-09 00:12:00,
2013-01-08 17:22:00,60.0,-7.0,29.94,North,352,4.0,8.0,6,0.00,,,0.00,,2013-01-09 00:22:00,
2013-01-08 17:33:00,58.0,-6.0,29.95,NNW,346,4.0,7.0,7,0.00,,,0.00,,2013-01-09 00:33:00,
2013-01-08 17:42:00,58.0,-6.0,29.95,NNW,346,4.0,7.0,7,0.00,,,0.00,,2013-01-09 00:42:00,
2013-01-08 17:53:00,57.0,-1.0,29.96,NW,321,1.0,6.0,9,0.00,,,0.00,,2013-01-09 00:53:00,
2013-01-08 18:02:00,55.0,1.0,29.96,NNW,347,2.0,3.0,11,0.00,,,0.00,,2013-01-09 01:02:00,
2013-01-08 18:12:00,55.0,1.0,29.96,NNW,347,2.0,3.0,11,0.00,,,0.00,,2013-01-09 01:12:00,
2013-01-08 18:22:00,54.0,3.0,29.97,NNW,332,0.0,0.0,12,0.00,,,0.00,,2013-01-09 01:22:00,
2013-01-08 18:32:00,54.0,1.0,29.98,North,359,4.0,9.0,11,0.00,,,0.00,,2013-01-09 01:32:00,
2013-01-08 18:42:00,54.0,1.0,29.98,North,359,4.0,9.0,11,0.00,,,0.00,,2013-01-09 01:42:00,
2013-01-08 18:52:00,54.0,4.0,29.98,North,356,4.0,7.0,13,0.00,,,0.00,,2013-01-09 01:52:00,
2013-01-08 19:02:00,52.0,6.0,29.99,WNW,293,1.0,5.0,15,0.00,,,0.00,,2013-01-09 02:02:00,
2013-01-08 19:12:00,52.0,6.0,29.99,WNW,293,1.0,5.0,15,0.00,,,0.00,,2013-01-09 02:12:00,
2013-01-08 19:22:00,51.0,6.0,30.00,WNW,295,2.0,6.0,16,0.00,,,0.00,,2013-01-09 02:22:00,
2013-01-08 19:32:00,50.0,8.0,30.00,WNW,295,4.0,5.0,18,0.00,,,0.00,,2013-01-09 02:32:00,
2013-01-08 19:42:00,50.0,8.0,30.00,WNW,295,4.0,5.0,18,0.00,,,0.00,,2013-01-09 02:42:00,
2013-01-08 19:53:00,50.0,7.0,30.00,NNW,342,5.0,7.0,17,0.00,,,0.00,,2013-01-09 02:53:00,
2013-01-08 20:03:00,50.0,6.0,30.00,NNW,343,7.0,9.0,16,0.00,,,0.00,,2013-01-09 03:03:00,
2013-01-08 20:12:00,50.0,6.0,30.00,NNW,343,7.0,9.0,16,0.00,,,0.00,,2013-01-09 03:12:00,
2013-01-08 20:22:00,50.0,6.0,30.01,NNW,333,6.0,12.0,16,0.00,,,0.00,,2013-01-09 03:22:00,
2013-01-08 20:33:00,49.0,6.0,30.01,North,349,5.0,10.0,17,0.00,,,0.00,,2013-01-09 03:33:00,
2013-01-08 20:42:00,49.0,6.0,30.01,North,349,5.0,10.0,17,0.00,,,0.00,,2013-01-09 03:42:00,
2013-01-08 20:53:00,48.0,8.0,30.02,NNW,340,1.0,7.0,19,0.00,,,0.00,,2013-01-09 03:53:00,
2013-01-08 21:02:00,47.0,9.0,30.01,NNE,18,5.0,8.0,21,0.00,,,0.00,,2013-01-09 04:02:00,
2013-01-08 21:12:00,47.0,9.0,30.01,NNE,18,5.0,8.0,21,0.00,,,0.00,,2013-01-09 04:12:00,
2013-01-08 21:22:00,47.0,9.0,30.02,ENE,62,6.0,9.0,21,0.00,,,0.00,,2013-01-09 04:22:00,
2013-01-08 21:32:00,47.0,10.0,30.02,NE,53,3.0,9.0,22,0.00,,,0.00,,2013-01-09 04:32:00,
2013-01-08 21:42:00,46.0,9.0,30.02,NE,45,7.0,11.0,22,0.00,,,0.00,,2013-01-09 04:42:00,
2013-01-08 21:52:00,46.0,9.0,30.02,NE,45,7.0,11.0,22,0.00,,,0.00,,2013-01-09 04:52:00,
2013-01-08 22:03:00,47.0,9.0,30.02,NE,48,4.0,13.0,21,0.00,,,0.00,,2013-01-09 05:03:00,
2013-01-08 22:12:00,47.0,9.0,30.02,NE,48,4.0,13.0,21,0.00,,,0.00,,2013-01-09 05:12:00,
2013-01-08 22:22:00,48.0,8.0,30.02,NNE,13,11.0,20.0,19,0.00,,,0.00,,2013-01-09 05:22:00,
2013-01-08 22:33:00,48.0,8.0,30.02,North,1,11.0,21.0,19,0.00,,,0.00,,2013-01-09 05:33:00,
2013-01-08 22:42:00,48.0,8.0,30.02,North,1,11.0,21.0,19,0.00,,,0.00,,2013-01-09 05:42:00,
2013-01-08 22:52:00,48.0,9.0,30.02,NE,46,8.0,17.0,20,0.00,,,0.00,,2013-01-09 05:52:00,
2013-01-08 23:02:00,48.0,9.0,30.03,NNE,31,7.0,15.0,20,0.00,,,0.00,,2013-01-09 06:02:00,
2013-01-08 23:12:00,48.0,9.0,30.03,NNE,31,7.0,15.0,20,0.00,,,0.00,,2013-01-09 06:12:00,
2013-01-08 23:22:00,47.0,9.0,30.04,NE,42,5.0,15.0,21,0.00,,,0.00,,2013-01-09 06:22:00,
2013-01-08 23:32:00,46.0,9.0,30.04,NNE,21,8.0,14.0,22,0.00,,,0.00,,2013-01-09 06:32:00,
2013-01-08 23:42:00,46.0,9.0,30.04,NNE,21,8.0,14.0,22,0.00,,,0.00,,2013-01-09 06:42:00,
2013-01-08 23:52:00,47.0,9.0,30.04,NE,39,11.0,21.0,21,0.00,,,0.00,,2013-01-09 06:52:00,